This is the latest recevied weather packets stored in our database for station/object K0WOI. If no packets are shown the sender has not sent any weather packets the latest 10 day(s).
| Time | Temp. | Humidity | Pressure | Rain* | Wind** | Luminosity | Snow |
|---|---|---|---|---|---|---|---|
| 1777918412 | 26.67° C | 31% | 999.8 hPa | 0 mm | - | 366 W/m² | - |
| 1777918110 | 26.67° C | 28% | 999.7 hPa | 0 mm | - | 452 W/m² | - |
| 1777917808 | 26.11° C | 32% | 999.6 hPa | 0 mm | - | 254 W/m² | - |
| 1777917506 | 26.11° C | 32% | 1000 hPa | 0 mm | - | 84 W/m² | - |
| 1777917203 | 26.11° C | 33% | 999.6 hPa | 0 mm | - | 118 W/m² | - |
| 1777916901 | 26.11° C | 32% | 999.8 hPa | 0 mm | - | 157 W/m² | - |
| 1777916598 | 26.11° C | 33% | 999.9 hPa | 0 mm | - | 188 W/m² | - |
| 1777916295 | 26.11° C | 31% | 999.8 hPa | 0 mm | - | 148 W/m² | - |
| 1777915991 | 26.11° C | 31% | 999.9 hPa | 0 mm | - | 555 W/m² | - |
| 1777915689 | 26.11° C | 34% | 999.9 hPa | 0 mm | - | 292 W/m² | - |
| 1777915385 | 26.11° C | 32% | 999.8 hPa | 0 mm | - | 356 W/m² | - |
| 1777915081 | 25.56° C | 32% | 1000 hPa | 0 mm | - | 307 W/m² | - |
| 1777914778 | 25.56° C | 32% | 999.9 hPa | 0 mm | - | 340 W/m² | - |
| 1777914475 | 26.11° C | 30% | 1000.1 hPa | 0 mm | - | 118 W/m² | - |
| 1777914173 | 26.11° C | 33% | 999.9 hPa | 0 mm | - | 642 W/m² | - |
| 1777913868 | 25.56° C | 31% | 1000.1 hPa | 0 mm | - | 228 W/m² | - |
| 1777913565 | 26.11° C | 32% | 999.9 hPa | 0 mm | - | 231 W/m² | - |
| 1777913261 | 25.56° C | 32% | 1000 hPa | 0 mm | - | 495 W/m² | - |
| 1777912959 | 25.56° C | 32% | 1000.1 hPa | 0 mm | - | 116 W/m² | - |
| 1777912654 | 25.56° C | 33% | 999.9 hPa | 0 mm | - | 133 W/m² | - |
| 1777912351 | 25.56° C | 35% | 1000.1 hPa | 0 mm | - | 118 W/m² | - |
| 1777912047 | 25.56° C | 34% | 999.8 hPa | 0 mm | - | 227 W/m² | - |
| 1777911743 | 25.56° C | 34% | 1000 hPa | 0 mm | - | 117 W/m² | - |
| 1777911440 | 25° C | 34% | 999.9 hPa | 0 mm | - | 128 W/m² | - |
| 1777911137 | 25° C | 33% | 1000 hPa | 0 mm | - | 661 W/m² | - |
* Rain latest hour (hover to see other rain measurements)
** Current wind speed in m/s (hover to see current wind gust speed)